| time (UTC) | temp F | wind direction | speed MPH | gust MPH | rain 1hr in | rain 24hr in | rain mn in | humidity % | barometer mb |
| 20260831065114 | 73 | 213 | 1.0 | 1.0 | 0.00 | 0.00 | 0.00 | 99 | 4254.4 |
| 20260831064109 | 73 | 214 | 0.0 | 1.0 | 0.00 | 0.00 | 0.00 | 99 | 4254.7 |
| 20260831063106 | 73 | 215 | 1.0 | 1.0 | 0.00 | 0.00 | 0.00 | 99 | 4254.7 |
| 20260831062106 | 74 | 211 | 1.0 | 1.0 | 0.00 | 0.00 | 0.00 | 99 | 4254.6 |
| 20260831061106 | 74 | 213 | 1.0 | 1.0 | 0.00 | 0.00 | 0.00 | 98 | 4254.6 |
| 20260831055058 | 74 | 218 | 1.0 | 1.0 | 0.00 | 0.00 | 0.00 | 99 | 4254.6 |
| 20260831054056 | 74 | 218 | 1.0 | 1.0 | 0.00 | 0.00 | 0.00 | 99 | 4254.8 |
| 20260831053056 | 74 | 216 | 0.0 | 0.0 | 0.00 | 0.00 | 0.00 | 99 | 4254.8 |
| 20260831052055 | 74 | 217 | 1.0 | 1.0 | 0.00 | 0.00 | 0.00 | 98 | 4254.6 |
| 20260831051053 | 75 | 210 | 0.0 | 0.0 | 0.00 | 0.00 | 0.00 | 97 | 4254.7 |
| 20260831050051 | 76 | 213 | 0.0 | 0.0 | 0.00 | 0.00 | 0.00 | 97 | 4254.5 |
| 20260831045046 | 76 | 213 | 0.0 | 0.0 | 0.00 | 0.00 | 0.00 | 98 | 4254.6 |
| 20260831044042 | 76 | 213 | 0.0 | 0.0 | 0.00 | 0.00 | 0.00 | 95 | 4254.6 |
| 20260831043038 | 77 | 213 | 0.0 | 1.0 | 0.00 | 0.00 | 0.00 | 93 | 4254.7 |
| 20260831042038 | 76 | 214 | 0.0 | 0.0 | 0.00 | 0.00 | 0.00 | 93 | 4254.6 |
| 20260831041038 | 76 | 218 | 1.0 | 1.0 | 0.00 | 0.00 | 0.00 | 95 | 4254.7 |
| 20260831040033 | 77 | 212 | 1.0 | 2.0 | 0.00 | 0.00 | 0.00 | 94 | 4254.6 |
| 20260831035032 | 77 | 216 | 1.0 | 1.0 | 0.00 | 0.00 | 0.00 | 94 | 4254.8 |
| 20260831034027 | 77 | 213 | 0.0 | 0.0 | 0.00 | 0.00 | 0.00 | 91 | 4254.7 |
| 20260831033024 | 78 | 220 | 1.0 | 1.0 | 0.00 | 0.00 | 0.00 | 92 | 4254.7 |
| 20260831032019 | 78 | 207 | 0.0 | 1.0 | 0.00 | 0.00 | 0.00 | 90 | 4254.7 |
| 20260831031018 | 78 | 207 | 1.0 | 1.0 | 0.00 | 0.00 | 0.00 | 90 | 4254.7 |
| 20260831030017 | 78 | 209 | 1.0 | 1.0 | 0.00 | 0.00 | 0.00 | 89 | 4254.8 |
| 20260831025016 | 79 | 211 | 1.0 | 1.0 | 0.00 | 0.00 | 0.00 | 89 | 4254.7 |
| 20260831024012 | 79 | 211 | 1.0 | 1.0 | 0.00 | 0.00 | 0.00 | 88 | 4255.1 |
| 20260831023010 | 80 | 213 | 1.0 | 1.0 | 0.00 | 0.00 | 0.00 | 87 | 4254.9 |
| 20260831022005 | 80 | 214 | 1.0 | 1.0 | 0.00 | 0.00 | 0.00 | 86 | 4254.8 |
| 20260831021000 | 80 | 217 | 1.0 | 1.0 | 0.00 | 0.00 | 0.00 | 85 | 4254.5 |
| 20260831020000 | 80 | 226 | 1.0 | 1.0 | 0.00 | 0.00 | 0.00 | 86 | 4254.5 |
| 20260831014957 | 81 | 230 | 1.0 | 1.0 | 0.00 | 0.00 | 0.00 | 85 | 4254.1 |
| 20260831013953 | 81 | 222 | 1.0 | 1.0 | 0.00 | 0.00 | 0.00 | 85 | 4254.2 |
| 20260831012949 | 81 | 232 | 1.0 | 2.0 | 0.00 | 0.00 | 0.00 | 84 | 4253.8 |
| 20260831011950 | 82 | 225 | 1.0 | 1.0 | 0.00 | 0.00 | 0.00 | 84 | 4253.8 |
| 20260831010947 | 83 | 232 | 1.0 | 1.0 | 0.00 | 0.00 | 0.00 | 81 | 4253.8 |
| 20260831005942 | 83 | 229 | 2.0 | 2.0 | 0.00 | 0.00 | 0.00 | 81 | 4253.6 |
| 20260831004937 | 84 | 231 | 1.0 | 1.0 | 0.00 | 0.00 | 0.00 | 79 | 4253.7 |
| 20260831003935 | 84 | 226 | 0.0 | 1.0 | 0.00 | 0.00 | 0.00 | 77 | 4253.7 |
| 20260831002931 | 85 | 220 | 0.0 | 0.0 | 0.00 | 0.00 | 0.00 | 76 | 4253.6 |
| 20260831001931 | 86 | 228 | 1.0 | 1.0 | 0.00 | 0.00 | 0.00 | 74 | 4253.6 |
| 20260831000930 | 86 | 227 | 0.0 | 1.0 | 0.00 | 0.00 | 0.00 | 73 | 4253.6 |
| 20260830235929 | 87 | 224 | 1.0 | 1.0 | 0.00 | 0.00 | 0.00 | 71 | 4253.4 |
| 20260830234925 | 88 | 239 | 0.0 | 1.0 | 0.00 | 0.00 | 0.00 | 68 | 4253.6 |
| 20260830233922 | 89 | 229 | 1.0 | 1.0 | 0.00 | 0.00 | 0.00 | 67 | 4253.5 |
| 20260830232919 | 89 | 93 | 2.0 | 2.0 | 0.00 | 0.00 | 0.00 | 66 | 4253.9 |
| 20260830231917 | 90 | 329 | 0.0 | 0.0 | 0.00 | 0.00 | 0.00 | 66 | 4253.6 |
| 20260830230917 | 91 | 293 | 0.0 | 0.0 | 0.00 | 0.00 | 0.00 | 64 | 4253.8 |
| 20260830225917 | 92 | 237 | 3.0 | 3.0 | 0.00 | 0.00 | 0.00 | 63 | 4253.6 |
| 20260830224914 | 94 | 91 | 1.0 | 1.0 | 0.00 | 0.00 | 0.00 | 60 | 4253.8 |
| 20260830223909 | 94 | 248 | 1.0 | 2.0 | 0.00 | 0.00 | 0.00 | 60 | 4253.6 |
| 20260830222904 | 93 | 199 | 1.0 | 1.0 | 0.00 | 0.00 | 0.00 | 60 | 4253.7 |
| 20260830221901 | 93 | 91 | 1.0 | 1.0 | 0.00 | 0.00 | 0.00 | 60 | 4253.7 |
| 20260830220859 | 93 | 253 | 1.0 | 1.0 | 0.00 | 0.00 | 0.00 | 60 | 4253.6 |
| 20260830215856 | 94 | 76 | 0.0 | 1.0 | 0.00 | 0.00 | 0.00 | 60 | 4253.7 |
| 20260830214851 | 94 | 183 | 2.0 | 2.0 | 0.00 | 0.00 | 0.00 | 58 | 4253.6 |
| 20260830213846 | 95 | 345 | 2.0 | 2.0 | 0.00 | 0.00 | 0.00 | 58 | 4253.5 |
| 20260830212843 | 96 | 288 | 0.0 | 1.0 | 0.00 | 0.00 | 0.00 | 56 | 4253.7 |
| 20260830211838 | 95 | 218 | 1.0 | 1.0 | 0.00 | 0.00 | 0.00 | 57 | 4253.7 |
| 20260830210834 | 94 | 258 | 2.0 | 3.0 | 0.00 | 0.00 | 0.00 | 58 | 4253.5 |
| 20260830205831 | 91 | 235 | 1.0 | 1.0 | 0.00 | 0.00 | 0.00 | 61 | 4253.9 |
| 20260830204826 | 92 | 207 | 2.0 | 2.0 | 0.00 | 0.00 | 0.00 | 61 | 4253.8 |
| 20260830203821 | 92 | 10 | 1.0 | 2.0 | 0.00 | 0.00 | 0.00 | 60 | 4253.9 |
| 20260830202816 | 96 | 261 | 2.0 | 2.0 | 0.00 | 0.00 | 0.00 | 57 | 4254.1 |
| 20260830201812 | 95 | 243 | 1.0 | 2.0 | 0.00 | 0.00 | 0.00 | 58 | 4254.2 |
| 20260830200808 | 93 | 95 | 1.0 | 2.0 | 0.00 | 0.00 | 0.00 | 59 | 4254.1 |
| 20260830195803 | 93 | 121 | 3.0 | 3.0 | 0.00 | 0.00 | 0.00 | 63 | 4254.4 |
| 20260830194800 | 94 | 49 | 2.0 | 2.0 | 0.00 | 0.00 | 0.00 | 62 | 4254.5 |
| 20260830193755 | 94 | 310 | 1.0 | 1.0 | 0.00 | 0.00 | 0.00 | 60 | 4254.7 |
| 20260830192751 | 92 | 30 | 4.0 | 5.0 | 0.00 | 0.00 | 0.00 | 69 | 4254.9 |
| 20260830191747 | 93 | 7 | 1.0 | 1.0 | 0.00 | 0.00 | 0.00 | 65 | 4254.9 |
| 20260830190743 | 93 | 25 | 2.0 | 2.0 | 0.00 | 0.00 | 0.00 | 64 | 4255.2 |
| 20260830185741 | 91 | 296 | 2.0 | 2.0 | 0.00 | 0.00 | 0.00 | 65 | 4255.1 |
| 20260830184737 | 93 | 16 | 1.0 | 1.0 | 0.00 | 0.00 | 0.00 | 64 | 4255.4 |
| 20260830183732 | 94 | 342 | 2.0 | 2.0 | 0.00 | 0.00 | 0.00 | 64 | 4255.3 |
| 20260830182727 | 93 | 72 | 3.0 | 3.0 | 0.00 | 0.00 | 0.00 | 66 | 4255.5 |
| 20260830181725 | 92 | 68 | 2.0 | 2.0 | 0.00 | 0.00 | 0.00 | 67 | 4255.5 |
| 20260830180724 | 92 | 300 | 3.0 | 3.0 | 0.00 | 0.00 | 0.00 | 71 | 4255.6 |
| 20260830175719 | 91 | 343 | 1.0 | 2.0 | 0.00 | 0.00 | 0.00 | 70 | 4255.7 |
| 20260830174715 | 92 | 6 | 1.0 | 2.0 | 0.00 | 0.00 | 0.00 | 69 | 4255.7 |
| 20260830173710 | 89 | 349 | 1.0 | 1.0 | 0.00 | 0.00 | 0.00 | 73 | 4255.9 |
| 20260830172708 | 91 | 65 | 1.0 | 1.0 | 0.00 | 0.00 | 0.00 | 73 | 4256.1 |
| 20260830171705 | 92 | 330 | 3.0 | 3.0 | 0.00 | 0.00 | 0.00 | 71 | 4256.1 |
| 20260830170701 | 89 | 113 | 1.0 | 2.0 | 0.00 | 0.00 | 0.00 | 72 | 4256.3 |
| 20260830165700 | 91 | 16 | 3.0 | 3.0 | 0.00 | 0.00 | 0.00 | 74 | 4256.4 |
| 20260830164658 | 90 | 106 | 1.0 | 1.0 | 0.00 | 0.00 | 0.00 | 73 | 4256.4 |
| 20260830163656 | 91 | 119 | 1.0 | 1.0 | 0.00 | 0.00 | 0.00 | 73 | 4256.4 |
| 20260830162651 | 90 | 288 | 2.0 | 2.0 | 0.00 | 0.00 | 0.00 | 71 | 4256.5 |
| 20260830161647 | 90 | 253 | 1.0 | 1.0 | 0.00 | 0.00 | 0.00 | 74 | 4256.7 |
| 20260830160645 | 90 | 241 | 3.0 | 3.0 | 0.00 | 0.00 | 0.00 | 72 | 4256.5 |
| 20260830155641 | 89 | 244 | 3.0 | 3.0 | 0.00 | 0.00 | 0.00 | 78 | 4256.8 |
| 20260830154637 | 87 | 253 | 1.0 | 1.0 | 0.00 | 0.00 | 0.00 | 76 | 4256.7 |
| 20260830153636 | 89 | 245 | 2.0 | 2.0 | 0.00 | 0.00 | 0.00 | 75 | 4256.8 |
| 20260830152634 | 87 | 124 | 1.0 | 2.0 | 0.00 | 0.00 | 0.00 | 77 | 4256.7 |
| 20260830151629 | 86 | 230 | 0.0 | 1.0 | 0.00 | 0.00 | 0.00 | 79 | 4256.9 |
| 20260830150629 | 86 | 233 | 1.0 | 1.0 | 0.00 | 0.00 | 0.00 | 80 | 4257.3 |
| 20260830145624 | 85 | 226 | 4.0 | 5.0 | 0.00 | 0.00 | 0.00 | 80 | 4256.8 |
| 20260830144620 | 86 | 224 | 1.0 | 1.0 | 0.00 | 0.00 | 0.00 | 82 | 4257.0 |
| 20260830143618 | 84 | 226 | 2.0 | 3.0 | 0.00 | 0.00 | 0.00 | 83 | 4257.1 |
| 20260830142617 | 84 | 228 | 1.0 | 2.0 | 0.00 | 0.00 | 0.00 | 84 | 4256.8 |
| 20260830141613 | 84 | 154 | 0.0 | 0.0 | 0.00 | 0.00 | 0.00 | 84 | 4256.9 |
| 20260830140609 | 82 | 245 | 1.0 | 1.0 | 0.00 | 0.00 | 0.00 | 86 | 4256.8 |
| 20260830135609 | 81 | 94 | 1.0 | 1.0 | 0.00 | 0.00 | 0.00 | 90 | 4256.6 |
| 20260830134606 | 80 | 78 | 0.0 | 1.0 | 0.00 | 0.00 | 0.00 | 91 | 4256.8 |
| 20260830133602 | 80 | 57 | 0.0 | 0.0 | 0.00 | 0.00 | 0.00 | 93 | 4256.8 |
| 20260830132600 | 79 | 55 | 0.0 | 0.0 | 0.00 | 0.00 | 0.00 | 94 | 4256.6 |
| 20260830131559 | 79 | 141 | 0.0 | 0.0 | 0.00 | 0.00 | 0.00 | 94 | 4256.7 |
| 20260830130555 | 78 | 225 | 0.0 | 0.0 | 0.00 | 0.00 | 0.00 | 94 | 4256.5 |
| 20260830125551 | 77 | 222 | 0.0 | 0.0 | 0.00 | 0.00 | 0.00 | 94 | 4256.5 |
| 20260830124549 | 76 | 222 | 0.0 | 0.0 | 0.00 | 0.00 | 0.00 | 96 | 4256.3 |
| 20260830123548 | 75 | 221 | 0.0 | 0.0 | 0.00 | 0.00 | 0.00 | 97 | 4256.3 |
| 20260830122545 | 74 | 224 | 0.0 | 0.0 | 0.00 | 0.00 | 0.00 | 98 | 4256.4 |
| 20260830121542 | 73 | 225 | 1.0 | 1.0 | 0.00 | 0.00 | 0.00 | 99 | 4255.9 |
| 20260830120537 | 73 | 215 | 1.0 | 1.0 | 0.00 | 0.00 | 0.00 | 99 | 4256.0 |
| 20260830115535 | 72 | 222 | 1.0 | 2.0 | 0.00 | 0.00 | 0.00 | 99 | 4256.1 |
| 20260830114533 | 72 | 219 | 1.0 | 1.0 | 0.00 | 0.00 | 0.00 | 99 | 4255.9 |
| 20260830113533 | 71 | 218 | 1.0 | 1.0 | 0.00 | 0.00 | 0.00 | 99 | 4255.8 |
| 20260830112530 | 71 | 224 | 2.0 | 2.0 | 0.00 | 0.00 | 0.00 | 99 | 4255.7 |
| 20260830111527 | 71 | 218 | 2.0 | 2.0 | 0.00 | 0.00 | 0.00 | 99 | 4255.4 |
| 20260830110523 | 72 | 237 | 0.0 | 1.0 | 0.00 | 0.00 | 0.00 | 99 | 4255.5 |
| 20260830105519 | 73 | 206 | 0.0 | 1.0 | 0.00 | 0.00 | 0.00 | 99 | 4255.4 |
| 20260830104517 | 73 | 207 | 0.0 | 1.0 | 0.00 | 0.00 | 0.00 | 99 | 4255.2 |
| 20260830103514 | 73 | 210 | 0.0 | 1.0 | 0.00 | 0.00 | 0.00 | 99 | 4255.3 |
| 20260830102513 | 74 | 210 | 0.0 | 0.0 | 0.00 | 0.00 | 0.00 | 99 | 4255.1 |
| 20260830101510 | 74 | 212 | 0.0 | 0.0 | 0.00 | 0.00 | 0.00 | 99 | 4255.2 |
| 20260830100509 | 73 | 214 | 1.0 | 1.0 | 0.00 | 0.00 | 0.00 | 99 | 4255.1 |
| 20260830095510 | 73 | 216 | 1.0 | 1.0 | 0.00 | 0.00 | 0.00 | 99 | 4255.0 |
| 20260830094508 | 74 | 216 | 1.0 | 1.0 | 0.00 | 0.00 | 0.00 | 99 | 4255.0 |
| 20260830093504 | 73 | 219 | 0.0 | 1.0 | 0.00 | 0.00 | 0.00 | 99 | 4254.9 |
| 20260830092500 | 73 | 215 | 1.0 | 2.0 | 0.00 | 0.00 | 0.00 | 99 | 4254.8 |
| 20260830091458 | 73 | 219 | 1.0 | 2.0 | 0.00 | 0.00 | 0.00 | 99 | 4254.7 |
| 20260830090452 | 73 | 218 | 1.0 | 1.0 | 0.00 | 0.00 | 0.00 | 99 | 4254.8 |
| 20260830085447 | 73 | 221 | 2.0 | 2.0 | 0.00 | 0.00 | 0.00 | 99 | 4254.9 |
| 20260830084444 | 74 | 213 | 1.0 | 1.0 | 0.00 | 0.00 | 0.00 | 99 | 4254.7 |
| 20260830083441 | 74 | 201 | 1.0 | 1.0 | 0.00 | 0.00 | 0.00 | 99 | 4254.8 |
| 20260830082436 | 75 | 233 | 1.0 | 1.0 | 0.00 | 0.00 | 0.00 | 98 | 4254.7 |
| 20260830081431 | 75 | 210 | 0.0 | 1.0 | 0.00 | 0.00 | 0.00 | 98 | 4254.8 |
| 20260830080427 | 76 | 127 | 0.0 | 0.0 | 0.00 | 0.00 | 0.00 | 98 | 4254.8 |
| 20260830075422 | 75 | 130 | 0.0 | 0.0 | 0.00 | 0.00 | 0.00 | 99 | 4254.7 |
| 20260830074419 | 75 | 210 | 0.0 | 0.0 | 0.00 | 0.00 | 0.00 | 99 | 4254.7 |
| 20260830073416 | 74 | 211 | 0.0 | 0.0 | 0.00 | 0.00 | 0.00 | 99 | 4254.7 |
| 20260830072413 | 74 | 216 | 0.0 | 0.0 | 0.00 | 0.00 | 0.00 | 98 | 4254.9 |
| 20260830071413 | 74 | 209 | 0.0 | 1.0 | 0.00 | 0.00 | 0.00 | 98 | 4255.0 |
| 20260830070412 | 74 | 200 | 0.0 | 0.0 | 0.00 | 0.00 | 0.00 | 98 | 4255.0 |